EA3HRE-13 Weather Reports


Display with metric or nautical units.
time (UTC)temp
F
wind
direction
speed
MPH
gust
MPH
rain 1hr
in
rain 24hr
in
rain mn
in
humidity
%
barometer
mb
20260504060121 63 33 0.0 0.0 0.00 0.00 0.00 100 1013.7
20260504045051 60 13 0.0 0.0 0.00 0.00 0.00 100 1013.7
20260504044050 60 16 0.0 0.0 0.00 0.00 0.00 100 1013.8
20260504043020 60 10 0.0 0.0 0.00 0.00 0.00 100 1013.7
20260504042020 60 8 0.0 0.0 0.00 0.00 0.00 100 1013.7
20260504041020 60 6 0.0 0.0 0.00 0.00 0.00 100 1013.7
20260504040020 60 0 0.0 0.0 0.00 0.00 0.00 100 1013.9
20260504034950 60 0 0.0 0.0 0.00 0.00 0.00 100 1014.0
20260504033950 60 0 0.0 0.0 0.00 0.00 0.00 100 1014.0
20260504032950 60 0 0.0 0.0 0.00 0.00 0.00 100 1014.0
20260504031950 60 5 0.0 0.0 0.00 0.00 0.00 100 1014.0
20260504030919 60 21 0.0 0.0 0.00 0.00 0.00 100 1014.0
20260504025902 60 23 0.0 0.0 0.00 0.00 0.00 100 1013.9
20260504024902 60 28 0.0 0.0 0.00 0.00 0.00 100 1013.8
20260504023901 60 18 0.0 0.0 0.00 0.00 0.00 100 1014.0
20260504022901 60 13 0.0 0.0 0.00 0.00 0.00 100 1013.8
20260504021901 60 44 0.0 0.0 0.00 0.00 0.00 100 1013.7
20260504020901 60 27 0.0 0.0 0.00 0.00 0.00 100 1013.7
20260504015831 60 25 0.0 0.0 0.00 0.00 0.00 100 1013.8
20260504014831 60 4 0.0 0.0 0.00 0.00 0.00 100 1014.0
20260504013801 60 17 0.0 0.0 0.00 0.00 0.00 100 1014.2
20260504012731 60 11 0.0 0.0 0.00 0.00 0.00 100 1014.2
20260504011731 60 18 0.0 0.0 0.00 0.00 0.00 100 1014.3
20260504010731 60 29 0.0 0.0 0.00 0.00 0.00 100 1014.2
20260504005731 60 33 0.0 0.0 0.00 0.00 0.00 100 1014.1
20260504004731 60 23 0.0 0.0 0.00 0.00 0.00 100 1014.4
20260504003700 60 17 0.0 0.0 0.00 0.00 0.00 100 1014.5
20260504002700 60 25 0.0 0.0 0.00 0.00 0.00 100 1014.4
20260504001700 60 22 0.0 0.0 0.00 0.00 0.00 100 1014.5
20260504000700 60 7 0.0 0.0 0.00 0.00 0.00 100 1014.5
20260503235700 60 16 0.0 0.0 0.00 0.00 0.00 100 1014.5
20260503234630 60 19 0.0 0.0 0.00 0.00 0.00 100 1014.7
20260503233630 60 22 0.0 0.0 0.00 0.00 0.00 100 1014.6
20260503232630 60 21 0.0 0.0 0.00 0.00 0.00 100 1014.8
20260503231630 60 9 0.0 0.0 0.00 0.00 0.00 100 1014.7
20260503230600 60 19 0.0 0.0 0.00 0.00 0.00 100 1014.7
20260503225600 60 8 0.0 0.0 0.00 0.00 0.00 100 1014.6
20260503224530 60 17 0.0 0.0 0.00 0.00 0.00 100 1014.7
20260503223529 59 4 0.0 0.0 0.00 0.00 0.00 100 1014.6
20260503222529 60 22 0.0 0.0 0.00 0.00 0.00 100 1014.7
20260503221529 60 13 0.0 0.0 0.00 0.00 0.00 100 1014.7
20260503220459 60 23 0.0 0.0 0.00 0.00 0.00 100 1014.7
20260503215459 60 35 0.0 0.0 0.00 0.00 0.00 100 1014.5
20260503214459 60 37 0.0 0.0 0.00 0.00 0.00 100 1014.6
20260503213459 60 32 0.0 0.0 0.00 0.00 0.00 100 1014.5
20260503212459 60 12 0.0 0.0 0.00 0.00 0.00 100 1014.6
20260503211459 60 15 0.0 0.0 0.00 0.00 0.00 100 1014.5
20260503210459 60 18 0.0 0.0 0.00 0.00 0.00 100 1014.5
20260503205458 61 22 0.0 0.0 0.00 0.00 0.00 100 1014.6
20260503204458 61 19 0.0 0.0 0.00 0.00 0.00 100 1014.7
20260503203428 61 14 0.0 0.0 0.00 0.00 0.00 100 1014.6
20260503202428 61 12 0.0 0.0 0.00 0.00 0.00 100 1014.8
20260503201428 62 13 0.0 0.0 0.00 0.00 0.00 100 1014.7
20260503200428 62 31 0.0 0.0 0.00 0.00 0.00 100 1014.6
20260503195358 62 22 0.0 0.0 0.00 0.00 0.00 100 1014.7
20260503194358 62 22 0.0 0.0 0.00 0.00 0.00 100 1014.8
20260503193358 62 22 0.0 0.0 0.00 0.00 0.00 100 1014.6
20260503192358 62 23 0.0 0.0 0.00 0.00 0.00 100 1014.5
20260503191358 62 23 0.0 0.0 0.00 0.00 0.00 100 1014.4
20260503190328 62 24 0.0 0.0 0.00 0.00 0.00 100 1014.3
20260503185328 63 18 0.0 0.0 0.00 0.00 0.00 100 1014.2
20260503184328 63 15 0.0 0.0 0.00 0.00 0.00 100 1014.3
20260503183327 63 0 0.0 0.0 0.00 0.00 0.00 100 1014.2
20260503182327 63 86 0.0 0.0 0.00 0.00 0.00 100 1014.2
20260503181327 64 86 0.0 0.0 0.00 0.00 0.00 100 1014.2
20260503180257 64 44 0.0 0.0 0.00 0.00 0.00 100 1014.4
20260503175257 64 358 0.0 0.0 0.00 0.00 0.00 100 1014.2
20260503174227 64 38 0.0 0.0 0.00 0.00 0.00 100 1014.2
20260503173227 65 66 0.0 0.0 0.00 0.00 0.00 100 1014.4
20260503172157 65 134 0.0 0.0 0.00 0.00 0.00 100 1014.4
20260503171157 65 140 0.0 0.0 0.00 0.00 0.00 100 1014.3
20260503170157 65 100 0.0 0.0 0.00 0.00 0.00 100 1014.1
20260503160156 67 98 0.0 0.0 0.00 0.00 0.00 100 1013.7
20260503150126 69 127 0.0 0.0 0.00 0.00 0.00 100 1014.0
20260503131025 70 148 0.0 0.0 0.00 0.00 0.00 100 1015.5
20260503080822 68 119 0.0 0.0 0.00 0.00 0.00 100 1016.8
20260503072821 67 46 0.0 0.0 0.00 0.00 0.00 100 1016.8
20260503071751 66 73 0.0 0.0 0.00 0.00 0.00 100 1016.7
20260503070751 66 44 0.0 0.0 0.00 0.00 0.00 100 1016.8